Find OneWeb SL0386

NORAD ID: 49312 Int'l Des: 2021-090 Owner: ONEWEBN Country: UK Constellation: oneweb operational
LEOCIRCULARPOLARONEWEB_TYPE

リアルタイム位置

3D地球を読み込み中...

OneWeb SL0386について

説明を読み込み中...

次回通過

Passes for default location (London). Set your location on the main map for personalized predictions.

高度履歴

Loading altitude history...

軌道要素

1 49312U 21090AK 26106.94365944 -.00000024 00000-0 -91676-4 0 9991
2 49312 87.9146 286.6516 0001863 100.7380 259.3963 13.20773206221730
Epoch: Apr 16, 2026 • Age: 5 hours

現在のステータス

高度 1186.2 km
速度 7.26 km/s
衛星直下点 -8.89°S, 146.88°W
打ち上げ日 Oct 14, 2021
運用期間 4.5 years
タイプ internet

技術仕様

分類 Payload
質量 148.00 kg
乾燥質量 140.00 kg
総質量 148.00 kg
長さ 1.30 m
直径 1.00 m
スパン 5.00 m
形状 Trapezoid+2 pan
製造者 ONEWUS
バスタイプ ARROW
フェーズステータス In Orbit
所有者/国 ONEWEBN/UK

Most Searched